CAPE
0 0 0 0 0 0 0 0 0 0 0 0 0 0 0 0 0 0 0 0 0 0 0 0 0 0 0 0 0 0 0 0 0 0 0 0 235 277 208 212 45 22 0 0 0
0 0 0 0 0 0 0 0 0 0 0 0 0 0 0 0 0 0 0 0 0 0 0 0 0 0 0 0 0 0 0 0 0 0 0 0 84 140 53 0 8 3 20 1 0
0 0 0 0 0 0 0 0 0 0 0 0 0 0 0 0 0 0 0 0 0 0 0 0 0 0 0 0 0 0 0 0 0 0 0 0 1 100 119 31 22 35 121 38 118
0 0 0 0 0 0 0 0 0 0 0 0 0 0 0 0 0 0 0 0 0 0 0 0 0 0 0 0 0 0 0 0 0 0 0 0 97 81 186 114 36 64 137 347 146
0 0 0 0 0 0 0 0 0 0 0 0 0 0 0 0 0 0 0 0 0 0 0 0 0 0 0 0 0 0 0 0 0 0 0 30 155 314 121 106 144 309 202 64 21
0 0 0 0 0 0 0 0 0 0 0 0 0 0 0 0 0 0 0 0 0 0 0 0 0 0 0 0 0 0 0 0 0 0 0 17 153 227 427 356 226 119 45 38 27
0 0 0 0 0 0 0 0 0 0 0 0 0 0 0 0 0 0 0 0 0 0 0 0 0 0 0 0 0 0 0 0 0 0 3 222 161 92 185 182 93 27 4 23 45
0 0 0 0 0 0 0 0 0 0 0 0 0 0 0 0 0 0 0 0 0 0 0 0 0 0 0 0 0 0 0 0 0 0 0 0 296 391 167 83 120 73 49 37 0
0 0 0 0 0 0 0 0 0 0 0 0 0 0 0 0 0 0 0 0 0 0 0 0 0 0 0 0 0 0 0 0 0 0 0 0 280 206 129 107 65 0 0 0 0
0 0 0 0 0 0 0 0 0 0 0 0 0 0 0 0 0 0 0 0 0 0 0 0 0 0 0 0 0 0 0 0 0 0 0 57 224 131 3 6 2 0 0 0 0
0 0 0 0 0 0 0 0 0 0 0 0 0 0 0 0 0 0 0 0 0 0 0 0 0 0 0 0 0 0 0 0 0 9 50 194 289 62 0 0 0 0 0 0 0
0 0 0 0 0 0 0 0 0 0 0 0 0 0 0 0 0 0 0 0 0 0 0 0 0 0 0 0 0 0 0 0 0 54 208 334 238 51 0 0 0 0 0 0 0
0 0 0 0 0 0 0 0 0 0 0 0 0 0 0 0 0 0 0 0 0 0 0 0 0 0 0 0 0 0 0 0 0 5 361 311 185 46 0 0 0 0 0 0 0
0 0 0 0 0 0 0 0 0 0 0 0 0 0 0 0 0 0 0 0 0 0 0 0 0 0 0 0 0 0 0 0 0 0 103 121 98 4 0 0 0 0 0 0 0
0 0 0 0 0 0 0 0 0 0 0 0 0 0 0 0 0 0 0 0 0 0 0 0 0 0 0 0 0 0 0 0 0 0 0 0 0 104 0 0 0 0 0 0 0
0 0 0 0 0 0 0 0 0 0 0 0 0 0 0 0 0 0 0 0 0 0 0 0 0 0 0 0 0 0 0 0 0 0 0 0 0 59 20 0 0 0 0 0 0
0 0 0 0 0 0 0 0 0 0 0 0 0 0 0 0 0 0 0 0 0 0 0 0 0 0 0 0 0 0 0 0 0 0 0 0 0 0 46 0 0 0 0 0 0
0 0 0 0 0 0 0 0 0 0 0 0 0 0 0 0 0 0 0 0 0 0 0 0 0 0 0 0 0 0 0 0 0 0 0 0 0 4 1 0 0 0 0 0 0
0 0 0 0 0 0 0 0 0 0 0 0 0 0 0 0 0 0 0 0 0 0 0 0 0 0 0 0 0 0 0 0 0 0 0 0 0 0 0 0 0 0 0 0 0
0 0 0 0 0 0 0 0 0 0 0 0 1 0 0 0 0 0 0 0 0 0 0 0 0 0 0 0 0 0 0 0 0 0 0 0 0 0 0 0 0 0 0 0 0
0 0 0 0 0 0 0 0 0 0 0 0 0 10 2 5 3 0 0 0 0 0 0 0 0 0 0 0 0 0 0 0 0 0 0 0 0 0 0 0 0 0 0 0 0
0 0 0 0 0 0 0 0 0 0 0 0 0 0 0 0 5 4 12 0 0 0 0 0 0 0 0 0 0 0 0 0 0 0 0 0 0 0 0 0 0 0 0 0 0
0 0 0 0 0 0 0 0 0 14 3 0 0 0 0 0 9 17 1 0 0 0 0 0 0 0 0 0 0 0 0 0 0 0 0 0 0 0 0 0 0 0 0 0 0
0 0 0 0 0 0 0 0 0 5 2 0 0 0 0 0 3 11 0 0 0 0 0 0 0 0 0 0 0 0 0 0 0 0 0 0 0 0 0 0 0 0 0 0 0
0 0 0 0 0 0 0 0 0 0 0 0 0 0 0 0 2 6 0 0 0 0 0 0 0 0 0 0 0 0 0 0 0 0 0 0 0 0 0 0 0 0 0 0 0
0 0 0 0 0 0 0 0 0 0 0 0 0 0 0 0 0 0 0 0 0 0 0 0 0 0 0 0 0 0 0 0 0 0 0 0 0 0 0 0 0 0 0 0 0
0 0 0 0 0 0 0 0 0 0 0 0 2 0 0 0 0 2 0 0 0 0 0 0 0 0 0 0 0 0 0 0 0 0 0 0 0 0 0 0 0 0 0 0 0
CIN
-0 -0 -0 -0 -0 -0 -0 -0 -0 -0 -0 -0 -0 -0 -0 -0 -0 -0 -0 -0 -0 -0 -0 -0 -0 -0 -0 -0 -0 -0 -0 -0 -0 -0 -0 -0 -83 -265 -308 -254 -421 -456 -0 -0 -0
-0 -0 -0 -0 -0 -0 -0 -0 -0 -0 -0 -0 -0 -0 -0 -0 -0 -0 -0 -0 -0 -0 -0 -0 -0 -0 -0 -0 -0 -0 -0 -0 -0 -0 -0 -0 -65 -160 -224 -46 -413 -240 -359 -94 -0
-0 -0 -0 -0 -0 -0 -0 -0 -0 -0 -0 -0 -0 -0 -0 -0 -0 -0 -0 -0 -0 -0 -0 -0 -0 -0 -0 -0 -0 -0 -0 -0 -0 -0 -0 -0 -8 -124 -166 -163 -224 -268 -309 -304 -261
-0 -0 -0 -0 -0 -0 -0 -0 -0 -0 -0 -0 -0 -0 -0 -0 -0 -0 -0 -0 -0 -0 -0 -0 -0 -0 -0 -0 -0 -0 -0 -0 -0 -0 -0 -0 -139 -132 -102 -135 -317 -320 -289 -232 -286
-0 -0 -0 -0 -0 -0 -0 -0 -0 -0 -0 -0 -0 -0 -0 -0 -0 -0 -0 -0 -0 -0 -0 -0 -0 -0 -0 -0 -0 -0 -0 -0 -0 -0 -0 -126 -128 -185 -206 -280 -323 -245 -315 -435 -520
-0 -0 -0 -0 -0 -0 -0 -0 -0 -0 -0 -0 -0 -0 -0 -0 -0 -0 -0 -0 -0 -0 -0 -0 -0 -0 -0 -0 -0 -0 -0 -0 -0 -0 -0 -133 -229 -188 -183 -252 -341 -391 -453 -475 -533
-0 -0 -0 -0 -0 -0 -0 -0 -0 -0 -0 -0 -0 -0 -0 -0 -0 -0 -0 -0 -0 -0 -0 -0 -0 -0 -0 -0 -0 -0 -0 -0 -0 -0 -46 -244 -226 -249 -288 -312 -365 -362 -172 -486 -563
-0 -0 -0 -0 -0 -0 -0 -0 -0 -0 -0 -0 -0 -0 -0 -0 -0 -0 -0 -0 -0 -0 -0 -0 -0 -0 -0 -0 -0 -0 -0 -0 -0 -0 -0 -0 -134 -128 -242 -266 -290 -385 -465 -549 -17
-0 -0 -0 -0 -0 -0 -0 -0 -0 -0 -0 -0 -0 -0 -0 -0 -0 -0 -0 -0 -0 -0 -0 -0 -0 -0 -0 -0 -0 -0 -0 -0 -0 -0 -0 -0 -171 -219 -278 -304 -427 -0 -0 -0 -0
-0 -0 -0 -0 -0 -0 -0 -0 -0 -0 -0 -0 -0 -0 -0 -0 -0 -0 -0 -0 -0 -0 -0 -0 -0 -0 -0 -0 -0 -0 -0 -0 -0 -0 -0 -167 -220 -270 -68 -232 -237 -0 -0 -0 -0
-0 -0 -0 -0 -0 -0 -0 -0 -0 -0 -0 -0 -0 -0 -0 -0 -0 -0 -0 -0 -0 -0 -0 -0 -0 -0 -0 -0 -0 -0 -0 -0 -0 -118 -116 -177 -195 -300 -0 -0 -0 -0 -0 -0 -0
-0 -0 -0 -0 -0 -0 -0 -0 -0 -0 -0 -0 -0 -0 -0 -0 -0 -0 -0 -0 -0 -0 -0 -0 -0 -0 -0 -0 -0 -0 -0 -0 -0 -75 -125 -196 -196 -307 -0 -0 -0 -0 -0 -0 -0
-0 -0 -0 -0 -0 -0 -0 -0 -0 -0 -0 -0 -0 -0 -0 -0 -0 -0 -0 -0 -0 -0 -0 -0 -0 -0 -0 -0 -0 -0 -0 -0 -0 -60 -195 -193 -207 -258 -0 -0 -0 -0 -0 -0 -0
-0 -0 -0 -0 -0 -0 -0 -0 -0 -0 -0 -0 -0 -0 -0 -0 -0 -0 -0 -0 -0 -0 -0 -0 -0 -0 -0 -0 -0 -0 -0 -0 -0 -0 -52 -87 -66 -301 -0 -0 -0 -0 -0 -0 -0
-0 -0 -0 -0 -0 -0 -0 -0 -0 -0 -0 -0 -0 -0 -0 -0 -0 -0 -0 -0 -0 -0 -0 -0 -0 -0 -0 -0 -0 -0 -0 -0 -0 -0 -0 -0 -0 -167 -0 -0 -0 -0 -0 -0 -0
-0 -0 -0 -0 -0 -0 -0 -0 -0 -0 -0 -0 -0 -0 -0 -0 -0 -0 -0 -0 -0 -0 -0 -0 -0 -0 -0 -0 -0 -0 -0 -0 -0 -0 -0 -0 -0 -169 -248 -0 -0 -0 -0 -0 -0
-0 -0 -0 -0 -0 -0 -0 -0 -0 -0 -0 -0 -0 -0 -0 -0 -0 -0 -0 -0 -0 -0 -0 -0 -0 -0 -0 -0 -0 -0 -0 -0 -0 -0 -0 -0 -0 -0 -232 -0 -0 -0 -0 -0 -0
-0 -0 -0 -0 -0 -0 -0 -0 -0 -0 -0 -0 -0 -0 -0 -0 -0 -0 -0 -0 -0 -0 -0 -0 -0 -0 -0 -0 -0 -0 -0 -0 -0 -0 -0 -0 -0 -25 -9 -0 -0 -0 -0 -0 -0
-0 -0 -0 -0 -0 -0 -0 -0 -0 -0 -0 -0 -0 -0 -0 -0 -0 -0 -0 -0 -0 -0 -0 -0 -0 -0 -0 -0 -0 -0 -0 -0 -0 -0 -0 -0 -0 -0 -0 -0 -0 -0 -0 -0 -0
-0 -0 -0 -0 -0 -0 -0 -0 -0 -0 -0 -0 -10 -0 -0 -0 -0 -0 -0 -0 -0 -0 -0 -0 -0 -0 -0 -0 -0 -0 -0 -0 -0 -0 -0 -0 -0 -0 -0 -0 -0 -0 -0 -0 -0
-0 -0 -0 -0 -0 -0 -0 -0 -0 -0 -0 -0 -0 -37 -48 -46 -14 -0 -0 -0 -0 -0 -0 -0 -0 -0 -0 -0 -0 -0 -0 -0 -0 -0 -0 -0 -0 -0 -0 -0 -0 -0 -0 -0 -0
-0 -0 -0 -0 -0 -0 -0 -0 -0 -0 -0 -0 -0 -0 -0 -0 -40 -26 -41 -0 -0 -0 -0 -0 -0 -0 -0 -0 -0 -0 -0 -0 -0 -0 -0 -0 -0 -0 -0 -0 -0 -0 -0 -0 -0
-0 -0 -0 -0 -0 -0 -0 -0 -0 -54 -44 -0 -0 -0 -0 -0 -50 -69 -114 -0 -0 -0 -0 -0 -0 -0 -0 -0 -0 -0 -0 -0 -0 -0 -0 -0 -0 -0 -0 -0 -0 -0 -0 -0 -0
-0 -0 -0 -0 -0 -0 -0 -0 -0 -14 -11 -0 -0 -0 -0 -0 -46 -62 -0 -0 -0 -0 -0 -0 -0 -0 -0 -0 -0 -0 -0 -0 -0 -0 -0 -0 -0 -0 -0 -0 -0 -0 -0 -0 -0
-0 -0 -0 -0 -0 -0 -0 -0 -0 -5 -0 -0 -0 -0 -0 -2 -24 -58 -0 -0 -0 -0 -0 -0 -0 -0 -0 -0 -0 -0 -0 -0 -0 -0 -0 -0 -0 -0 -0 -0 -0 -0 -0 -0 -0
-0 -0 -0 -0 -0 -0 -0 -0 -0 -0 -0 -0 -0 -0 -0 -0 -0 -0 -0 -0 -0 -0 -0 -0 -0 -0 -0 -0 -0 -0 -0 -0 -0 -0 -0 -0 -0 -0 -0 -0 -0 -0 -0 -0 -0
-0 -0 -0 -0 -0 -0 -0 -0 -0 -0 -0 -12 -15 -6 -0 -0 -0 -36 -0 -0 -0 -0 -0 -0 -0 -0 -0 -0 -0 -0 -0 -0 -0 -0 -0 -0 -0 -0 -0 -0 -0 -0 -0 -0 -0
Wind_Speed
24 23 23 22 22 22 22 22 22 22 23 23 23 23 24 26 27 20 25 10 13 22 24 24 22 21 20 19 18 16 20 23 17 17 21 25 19 21 18 18 20 21 19 20 23
25 25 24 24 23 22 22 22 22 22 22 22 22 23 24 25 24 25 12 13 23 17 19 21 20 19 19 16 14 12 16 22 16 22 27 31 18 15 16 16 20 22 22 23 24
25 24 24 24 24 23 23 22 22 22 21 21 21 22 23 23 20 16 18 8 15 17 19 18 18 17 18 19 25 17 18 27 27 28 26 28 17 16 13 14 14 17 18 19 20
25 24 24 24 24 24 23 23 22 22 21 21 21 22 22 17 14 17 15 8 10 15 17 15 16 15 16 17 19 23 30 31 31 29 28 25 15 13 12 14 16 17 18 17 17
27 26 25 24 24 23 23 23 23 22 22 22 21 20 18 17 20 17 12 10 10 12 14 12 17 17 18 18 22 22 30 31 33 26 15 15 14 13 14 16 16 15 16 18 18
29 28 27 25 24 23 23 22 22 22 22 21 19 18 16 17 17 11 11 9 9 8 11 11 16 18 25 24 19 24 23 22 12 10 12 12 12 12 11 13 16 17 18 19 20
31 30 29 28 26 24 23 22 21 22 21 20 16 16 17 20 16 10 11 9 9 9 15 19 23 16 20 23 19 25 19 19 17 13 7 12 16 11 12 13 15 16 18 19 21
32 31 30 30 28 27 24 22 21 21 21 17 12 15 18 19 21 9 15 19 21 24 25 23 21 20 16 20 22 21 17 17 17 12 10 8 6 9 11 13 13 15 16 18 21
32 32 31 31 30 29 27 24 21 15 15 12 14 14 19 22 14 10 12 7 21 20 21 22 19 15 16 15 17 16 19 19 21 11 6 7 5 7 10 11 12 14 16 19 22
33 33 33 32 31 30 28 24 16 16 14 13 17 17 17 13 13 8 16 21 13 15 17 16 14 13 14 13 12 17 20 17 22 10 2 5 4 9 9 9 11 12 15 19 21
34 33 32 31 31 30 26 18 18 16 14 10 9 9 21 19 11 11 13 15 16 17 14 15 14 13 14 15 18 21 18 21 16 9 7 5 7 7 6 7 10 12 15 16 19
36 35 35 33 32 29 18 15 14 16 24 25 23 20 24 24 20 13 9 9 11 12 14 16 18 22 20 20 11 16 17 17 12 8 10 9 6 6 6 7 9 11 13 15 17
38 37 36 35 33 16 17 9 19 23 23 28 7 15 13 4 14 12 8 5 10 15 18 15 20 20 9 16 18 17 17 16 11 11 9 8 13 8 8 9 11 12 13 14 16
39 38 36 36 19 20 19 18 22 16 19 17 9 12 18 12 17 7 15 8 10 17 26 13 25 12 14 18 19 16 16 13 12 10 9 10 16 9 6 10 10 10 12 13 15
39 38 36 31 25 16 16 25 24 12 17 13 8 9 5 3 9 7 9 10 14 20 17 15 11 12 12 14 16 14 17 18 19 19 16 13 17 10 7 10 9 9 12 13 14
40 38 36 22 15 14 25 25 13 13 15 12 7 6 3 2 10 3 7 13 16 19 17 14 14 11 11 14 18 17 18 19 20 21 24 26 22 11 8 8 6 8 9 10 14
41 38 33 20 13 13 23 14 11 13 16 12 3 3 2 1 4 4 9 9 8 13 15 20 16 12 12 15 21 19 22 24 22 20 20 24 19 17 18 7 5 6 8 10 12
40 37 24 16 18 17 15 10 13 13 14 17 8 3 2 5 9 4 6 7 11 11 14 16 14 14 13 14 17 18 17 17 19 20 20 22 20 21 19 5 5 6 8 10 12
38 27 22 18 7 7 10 10 12 11 15 20 7 2 4 1 7 4 4 3 13 6 11 11 11 12 13 15 19 19 22 15 17 18 19 18 18 17 12 10 6 7 9 12 12
31 24 19 13 2 8 13 17 17 15 22 23 16 13 12 9 6 9 5 12 6 6 6 10 8 14 18 18 19 17 17 19 19 20 22 19 17 16 9 7 7 9 9 11 12
22 18 14 5 8 14 16 21 23 25 26 21 14 13 14 17 16 7 9 15 9 5 8 8 12 17 17 19 23 20 19 18 17 17 19 23 18 16 3 3 5 6 7 9 12
20 16 13 13 14 17 20 19 20 29 26 20 17 17 17 19 18 12 12 13 4 6 10 13 13 19 18 20 15 16 19 17 18 19 20 21 21 21 5 1 2 4 8 12 11
24 18 17 14 19 21 23 24 24 30 31 22 21 21 21 19 16 10 10 11 7 9 12 13 19 19 22 19 18 18 18 15 14 16 17 20 21 17 8 5 5 7 9 12 12
19 19 19 17 17 19 22 23 21 25 19 18 21 20 21 21 15 12 9 13 12 10 11 13 16 17 18 20 19 21 19 18 13 17 17 16 17 13 10 9 7 7 10 11 13
17 17 18 19 20 24 22 20 21 20 19 17 20 19 19 23 20 15 13 12 14 13 14 15 18 20 22 23 23 22 21 17 16 17 17 16 10 6 6 8 8 9 10 12 15
19 20 22 24 24 23 20 21 22 24 20 25 23 26 21 19 21 14 10 12 13 13 15 17 18 16 22 22 24 25 21 16 13 15 15 12 15 7 7 8 8 8 10 13 15
22 22 21 23 23 21 20 24 26 25 23 17 20 16 16 17 12 12 8 8 8 8 12 13 15 19 23 22 24 23 19 14 13 15 8 12 9 5 6 6 7 8 11 13 16
Wind_Direction
333 326 319 313 308 303 299 299 298 295 291 288 288 288 288 286 282 308 285 309 313 280 278 277 283 280 285 290 291 302 287 271 286 314 321 325 349 340 354 8 2 8 35 65 73
334 328 321 314 308 303 299 294 294 297 296 296 298 299 299 300 301 286 234 303 261 299 297 283 279 286 285 297 306 303 290 268 289 296 290 311 341 14 4 15 20 39 56 70 72
332 327 322 316 309 302 297 293 292 291 295 298 298 298 299 301 303 313 299 137 298 295 291 285 279 292 287 286 256 288 284 250 260 266 308 316 1 4 38 22 47 70 72 76 60
327 323 319 315 309 302 296 291 288 290 290 292 295 298 298 319 309 305 320 344 313 297 293 286 288 300 297 291 283 275 235 240 242 278 308 318 4 13 43 53 62 69 66 52 42
324 321 317 313 308 301 294 289 286 285 287 288 291 296 307 301 288 304 345 349 313 304 292 299 286 287 282 294 287 287 250 258 251 300 352 11 11 48 49 58 59 51 39 36 30
324 319 316 313 308 301 293 284 279 281 287 291 303 318 311 298 296 355 353 346 326 325 304 309 298 305 275 277 301 292 291 281 320 332 347 38 28 19 39 63 46 48 45 39 30
320 318 314 312 309 301 292 280 273 275 289 302 328 322 295 281 299 56 56 353 341 326 296 282 269 299 293 282 304 288 302 298 300 313 33 57 357 47 73 61 51 47 42 35 26
317 314 312 309 308 303 292 278 262 267 297 330 352 325 284 280 266 338 140 262 239 214 223 244 285 291 301 299 299 298 310 302 309 314 317 349 15 58 70 76 51 51 40 28 17
316 311 308 307 305 303 294 278 260 340 351 16 342 332 284 270 303 132 134 279 266 253 265 261 296 301 298 306 305 314 306 305 305 316 340 345 76 80 76 73 54 44 33 22 12
313 310 307 304 302 301 293 281 339 342 355 351 302 304 286 319 317 326 259 269 304 296 290 298 312 303 301 307 319 323 332 327 312 320 359 32 40 108 99 78 57 45 31 20 19
310 308 303 298 297 298 301 317 319 326 337 347 350 325 279 247 323 324 299 288 280 286 293 303 304 299 307 312 313 300 324 332 343 72 51 74 99 104 87 57 35 28 17 21 25
310 307 304 299 293 286 329 315 328 335 302 251 203 199 210 249 281 314 317 314 293 292 297 293 284 270 294 285 333 322 322 331 6 54 63 59 46 41 33 26 24 21 21 20 28
309 307 305 300 293 338 323 334 304 312 309 278 168 270 265 24 171 308 80 2 299 286 283 307 283 301 336 315 315 320 320 327 343 14 70 44 343 351 4 9 11 13 17 18 18
307 306 308 306 326 307 300 303 305 340 321 317 331 290 284 305 292 330 138 333 322 295 265 318 222 305 322 319 319 315 333 335 339 338 330 328 319 325 342 346 355 11 19 19 19
305 303 303 312 304 309 303 291 292 336 315 331 8 343 337 356 328 350 114 311 303 295 312 314 336 327 333 331 338 323 325 313 309 309 313 321 321 319 326 327 339 5 10 23 22
303 298 303 327 322 297 275 280 319 315 311 312 8 14 77 301 304 16 335 310 295 299 308 322 327 347 343 338 338 327 324 321 317 312 303 301 307 301 304 309 336 354 7 18 19
301 293 299 313 313 315 288 301 302 300 299 300 3 34 98 339 319 329 334 315 312 316 314 308 312 331 342 334 323 326 315 307 313 314 317 316 320 324 305 320 339 5 22 20 24
301 292 307 306 294 293 295 297 286 297 304 305 301 86 19 309 297 129 1 332 300 321 326 319 320 320 339 339 337 334 335 325 318 316 316 324 322 321 327 337 360 6 6 8 13
302 311 301 291 306 306 286 274 278 288 306 314 300 223 315 217 298 282 318 4 304 310 323 338 346 350 353 336 332 331 329 343 329 329 322 324 328 338 346 350 1 358 1 359 4
309 306 294 299 14 305 279 266 266 279 292 297 300 285 280 291 267 270 272 305 321 312 333 332 340 333 328 335 337 339 344 336 335 322 319 324 325 325 327 328 332 333 340 347 358
318 305 303 321 293 287 275 265 264 270 286 287 289 298 295 296 295 266 277 300 309 329 328 330 316 314 327 327 323 331 333 338 343 338 327 322 327 340 302 308 323 336 347 356 356
312 298 297 286 291 281 272 270 270 267 280 284 284 285 288 293 295 294 286 296 347 324 307 315 324 315 324 333 347 341 330 335 328 327 328 325 324 332 341 286 2 4 358 354 6
300 290 289 282 281 276 272 273 274 269 266 272 276 282 277 287 294 299 304 309 320 314 303 309 311 315 315 325 331 333 339 345 348 343 335 331 333 347 9 16 16 6 6 6 12
302 281 289 286 288 287 282 275 275 281 276 280 276 285 281 277 292 291 298 303 311 322 332 327 318 317 313 317 323 319 326 333 338 331 332 329 336 348 358 5 17 17 13 17 11
301 289 291 279 279 281 280 278 279 281 286 291 281 280 282 273 277 282 287 291 300 312 320 321 316 314 313 310 315 318 319 324 322 328 325 332 336 351 12 19 23 26 21 6 356
292 288 285 278 280 280 277 277 276 279 285 279 283 274 279 278 277 280 278 287 298 308 314 316 314 323 321 319 316 314 317 328 330 335 341 352 352 18 39 35 28 20 5 356 356
293 289 284 277 280 277 277 280 275 282 278 289 285 296 283 286 295 292 283 286 296 304 311 314 317 318 317 324 319 316 325 334 341 340 350 336 349 40 29 24 13 4 358 357 357